Location: Newark
(52.1752°N, 10.4140°W)
Time: 11:42:44
(UTC+00:00)

N. Korean satellite - Pass Details

Date: 17 November 2019
Orbit: 456 x 506 km, 97.2° (Epoch: 06 December)

Event Time Altitude Azimuth Distance (km) Brightness Sun altitude
Rises 06:56:37 0° 11° (N) 2,626 10.2 -10.4°
Reaches altitude 10° 06:58:44 10° 10° (N) 1,734 9.3 -10.1°
Maximum altitude 07:02:27 72° 286° (WNW) 537 6.6 -9.5°
Drops below altitude 10° 07:06:07 10° 202° (SSW) 1,706 9.3 -9.0°
Sets 07:08:11 0° 200° (SSW) 2,578 10.2 -8.7°
